Temp
17 19 19 20 19 19 18 19 19 19 19 19 19 18 19 20 20 19 19 19 18 18 19 19 19 18 18 18 18 17 17 17 17
18 17 18 18 18 18 18 18 18 18 19 19 19 18 18 19 19 19 18 19 18 18 18 18 18 18 18 18 18 17 17 17 17
17 18 17 17 17 17 18 18 18 18 18 18 18 18 18 19 19 19 18 18 18 18 18 18 18 18 18 18 17 17 17 16 16
17 17 17 17 17 17 18 18 18 18 18 18 18 18 18 19 19 19 18 18 18 18 18 18 18 18 18 18 17 17 17 16 16
16 16 16 16 16 16 16 17 17 17 17 17 18 18 18 18 19 18 17 18 18 18 18 18 18 18 18 17 17 17 17 17 17
15 15 15 16 15 16 16 16 16 16 17 17 17 17 18 17 18 17 17 17 17 18 18 17 17 17 18 18 18 17 17 17 17
14 15 15 15 16 15 16 16 16 15 16 16 17 17 17 16 16 16 16 17 16 17 17 17 17 17 17 17 17 17 17 17 17
15 15 15 14 15 15 15 15 15 14 15 16 16 15 16 16 15 16 16 16 16 16 17 17 17 17 17 17 17 17 16 16 16
14 14 14 14 14 15 14 14 14 15 15 15 15 15 15 15 15 15 16 16 15 15 16 16 16 16 16 17 16 16 16 16 16
11 12 12 13 13 14 14 14 14 14 14 14 15 14 14 14 14 14 15 16 16 16 15 15 16 16 16 16 16 16 16 16 16
9 10 11 12 12 12 13 13 13 13 13 13 13 13 13 13 13 14 14 15 16 16 16 16 15 15 15 16 16 16 16 15 15
8 8 9 11 12 13 12 13 14 14 12 13 14 13 13 13 12 13 13 14 15 15 15 15 16 15 14 14 15 15 15 15 15
7 7 8 9 12 12 12 12 13 13 13 14 13 13 13 12 12 12 13 14 14 14 14 15 15 15 15 14 14 14 14 15 15
6 6 7 7 8 10 12 12 13 12 13 13 13 13 13 12 12 12 13 13 13 13 13 14 14 14 14 14 14 14 15 15 14
5 6 7 7 7 7 8 9 10 10 11 13 13 13 12 12 12 12 11 11 12 12 12 12 12 13 13 14 13 13 14 14 14
5 5 6 5 5 5 6 7 9 9 9 12 12 13 12 12 12 11 11 11 11 11 11 11 11 11 12 12 12 13 13 12 13
3 3 3 4 3 4 4 5 7 8 7 9 11 14 13 12 11 11 11 11 11 11 11 11 11 11 11 11 12 11 12 12 12
1 1 1 2 0 0 1 2 3 6 6 6 8 12 10 11 12 11 11 10 10 10 11 10 10 10 10 9 10 11 11 11 10
-0 -0 -0 0 -1 -2 -1 -0 1 2 3 4 3 5 6 8 11 12 11 9 9 9 10 10 10 9 8 8 9 9 10 9 9
-3 -2 -2 -3 -4 -3 -2 -1 0 0 1 1 2 3 4 3 5 9 9 7 8 8 7 9 8 7 6 6 8 8 8 7 7
Height
848 847 842 842 844 845 845 846 845 845 843 843 843 842 841 842 843 843 844 845 846 845 846 845 845 844 846 845 845 846 847 847 847
851 850 849 849 850 852 851 850 848 847 846 846 844 845 844 845 845 845 847 848 848 848 848 848 848 848 848 849 849 849 850 850 849
853 854 854 854 855 854 852 852 850 849 848 848 848 846 846 847 847 849 850 849 850 851 851 850 851 851 851 852 852 852 852 852 852
855 856 856 856 856 855 853 853 853 852 851 851 850 851 850 850 850 852 852 852 852 851 852 853 853 854 854 854 854 854 854 854 854
857 860 859 859 859 857 856 856 856 854 854 854 855 855 854 854 854 855 855 854 854 855 853 853 855 856 858 857 857 856 856 856 856
860 860 860 859 859 859 858 858 858 857 857 857 857 858 858 858 857 858 857 856 855 856 856 856 856 859 859 860 859 858 858 858 858
862 862 861 860 859 858 859 858 858 859 859 860 859 862 862 860 860 860 859 858 857 858 858 858 857 860 860 860 861 861 861 860 859
866 865 864 863 861 861 862 862 861 863 863 863 862 863 865 865 864 863 862 861 860 859 859 860 861 861 861 862 861 862 862 862 862
869 868 867 866 865 864 865 866 866 866 866 866 866 865 867 867 868 866 864 863 863 862 862 862 862 862 863 863 863 864 863 863 863
870 870 868 866 867 868 868 868 869 869 869 868 868 868 868 869 869 869 867 866 866 865 865 865 864 863 864 864 864 864 864 864 863
872 872 870 868 869 870 870 870 871 871 871 871 871 870 870 870 870 869 868 868 868 868 868 867 865 864 864 866 865 865 865 864 865
873 872 871 871 871 871 872 872 871 871 871 872 872 871 871 872 871 870 870 870 870 870 869 868 867 867 866 866 866 866 866 866 866
876 874 873 873 872 872 872 872 872 872 873 872 872 872 873 872 871 871 870 869 870 871 869 868 868 868 868 868 867 866 866 865 866
878 877 876 875 875 873 873 873 873 873 873 873 873 873 874 872 871 870 870 870 870 871 870 869 869 869 869 869 869 868 866 866 865
881 880 878 877 876 876 875 876 876 875 875 874 873 874 874 873 872 871 871 871 872 872 871 871 870 869 869 869 868 867 866 865 865
881 880 880 880 879 879 878 877 877 877 875 875 873 873 873 873 873 874 873 872 873 872 872 872 870 871 869 869 869 867 866 864 864
882 881 880 879 880 880 880 879 880 880 878 878 875 871 872 873 874 874 874 874 875 874 874 873 872 871 870 870 868 866 866 863 861
885 883 882 882 882 882 882 882 882 883 882 882 882 876 879 877 874 875 875 876 876 876 875 874 873 871 872 870 867 866 865 862 859
887 887 886 886 886 886 887 886 886 885 885 884 884 885 886 883 876 874 876 877 877 876 876 875 874 873 872 870 866 865 864 860 860
892 891 891 890 891 891 891 891 890 889 889 889 888 888 888 888 888 879 877 879 878 877 876 875 874 873 871 869 866 865 862 860 859
Wind_Speed
14 16 17 15 13 12 12 14 13 13 14 14 14 13 15 13 11 11 11 12 13 13 14 15 15 16 15 16 16 16 16 16 16
11 14 13 12 9 7 8 11 13 13 13 14 15 14 14 12 11 10 9 11 12 12 12 13 14 15 14 15 14 14 14 14 14
13 11 12 13 10 9 10 10 12 12 12 15 15 14 16 13 12 10 9 10 11 11 11 12 12 12 12 12 13 13 12 12 13
14 13 12 10 12 11 10 10 11 12 13 14 15 15 17 13 12 10 9 7 8 9 11 10 11 11 11 11 11 11 11 12 12
13 12 10 12 12 12 13 11 12 13 14 14 13 15 16 14 12 12 9 7 6 6 6 9 9 8 8 9 10 9 10 9 7
12 12 12 13 14 14 12 13 13 13 13 12 13 14 13 14 13 12 11 8 8 5 6 9 10 7 6 7 6 6 5 6 6
12 12 12 12 13 14 14 13 13 10 10 10 13 13 12 15 15 16 14 13 12 8 7 7 9 5 5 6 6 5 4 5 5
10 9 9 11 12 11 12 11 12 13 13 13 12 12 11 12 13 17 16 16 13 11 10 9 8 9 8 5 6 4 2 4 4
10 9 9 9 10 12 12 12 14 15 14 15 15 14 11 9 10 15 16 16 17 16 11 8 7 5 3 3 3 3 2 2 3
10 10 10 11 10 8 10 11 10 10 12 15 16 14 12 9 8 9 14 14 15 16 16 16 12 5 6 2 3 2 2 2 2
9 10 12 15 13 10 10 9 7 8 8 9 11 13 12 10 8 7 8 10 10 11 13 14 16 15 6 4 5 5 4 3 3
10 10 11 11 11 10 9 11 10 10 10 9 9 10 10 8 8 7 7 6 6 7 9 12 12 13 14 17 13 5 6 7 7
12 12 12 11 8 8 8 8 8 7 9 10 9 9 7 8 8 7 7 7 7 7 7 8 9 11 13 13 14 13 14 6 8
15 14 13 11 10 11 10 7 6 9 8 9 8 7 7 7 8 7 7 7 7 8 9 8 8 8 10 13 13 12 11 11 11
14 15 15 14 12 13 11 9 8 10 9 8 6 6 5 7 10 10 5 6 9 10 10 9 9 9 10 11 13 15 14 14 14
13 12 13 13 15 14 14 9 10 11 11 6 8 2 5 6 7 10 12 12 11 11 11 11 12 11 11 12 14 14 15 16 16
16 15 15 14 12 14 15 15 8 9 14 8 5 2 3 8 7 8 10 12 11 11 11 12 12 12 12 15 15 16 17 17 18
18 18 16 15 15 14 14 14 13 8 6 10 6 3 3 13 2 3 7 10 12 12 11 12 12 13 12 14 15 17 18 18 19
20 19 18 17 15 15 14 14 12 11 11 4 9 5 4 3 4 4 8 11 14 14 11 11 12 11 12 13 14 17 18 18 20
20 19 19 18 16 15 15 15 14 14 11 11 10 5 5 8 4 5 9 14 11 11 13 14 8 11 13 14 17 19 18 20 22
Wind_Direction
72 71 68 62 44 50 56 64 78 79 81 80 84 88 91 87 89 91 93 98 99 103 103 96 97 97 96 96 94 90 86 85 82
82 71 75 71 76 62 69 71 82 81 80 77 79 84 84 82 84 82 89 104 103 98 100 103 94 96 95 96 95 96 92 89 86
90 84 82 87 81 72 69 73 81 85 81 76 73 77 73 73 72 75 84 111 111 106 99 96 99 101 100 100 102 99 97 91 87
89 82 75 72 71 77 71 76 92 93 85 77 74 73 78 71 68 63 69 93 124 115 104 90 88 89 92 94 94 94 94 88 85
95 85 83 80 82 77 86 89 95 91 87 81 75 70 65 65 65 55 53 77 106 120 111 105 99 84 91 98 94 95 96 98 97
75 88 83 77 70 81 81 86 93 82 80 78 77 62 60 63 62 52 47 68 81 110 123 114 104 91 85 76 75 85 78 87 87
76 78 74 69 71 66 69 71 69 66 78 75 82 62 59 59 58 58 52 56 62 79 99 106 107 117 111 115 100 76 47 80 84
64 66 63 64 67 63 61 59 68 72 69 71 66 65 57 59 60 63 61 55 55 61 77 90 98 85 78 93 96 67 65 79 75
60 69 67 68 67 79 69 68 69 75 71 62 61 62 61 58 56 59 62 59 55 50 54 53 54 35 62 40 6 47 12 62 69
53 63 63 76 75 66 63 67 68 66 62 57 50 48 50 45 52 50 60 56 53 49 45 40 36 44 39 19 350 311 335 7 6
52 59 65 82 89 68 78 72 59 58 63 53 47 37 34 31 30 36 58 54 35 34 36 35 35 42 32 2 341 348 338 327 316
51 55 56 67 94 88 72 67 63 56 51 47 37 23 21 22 23 22 26 38 21 26 33 34 29 29 27 34 44 2 349 332 314
52 55 52 52 73 83 60 46 30 34 29 18 9 9 357 5 13 15 15 21 17 7 12 22 20 17 14 19 15 16 30 344 310
53 52 48 46 43 51 57 56 34 18 5 353 343 346 347 2 5 4 360 9 13 10 4 12 1 5 7 1 4 2 358 358 3
56 52 48 44 42 38 39 44 38 32 9 340 336 332 3 46 36 30 28 42 33 24 16 9 1 0 4 354 353 352 348 342 336
64 63 56 51 46 37 34 32 36 26 14 349 344 35 96 38 29 33 66 47 35 36 33 24 20 11 4 1 357 348 345 343 333
60 59 55 53 52 45 36 34 34 39 31 15 330 345 121 22 61 70 40 35 31 26 19 17 16 14 8 359 357 352 344 341 337
61 61 57 54 51 42 37 34 35 19 25 37 18 328 353 332 149 34 30 15 13 5 2 12 11 9 6 7 359 353 346 344 346
60 58 57 55 51 44 38 33 33 34 27 22 24 32 353 342 310 289 333 351 350 349 347 348 352 2 7 5 351 350 349 350 351
57 55 52 50 47 44 41 38 37 37 37 34 11 8 13 26 326 302 324 330 336 336 335 337 7 4 10 2 346 346 343 351 353